Terug naar catalogus

RASSVET-3 3

ActiefWetenschapPO
NORAD 68362·PAYLOAD·🇷🇺 Russia

Gelanceerd Mar 23, 2026 vanaf Plesetsk Cosmodrome

Loading…

Volgende Passages (komende 24 uur)

TLE

VersSource: Space-Track

Epoch: Sep 14, 2026, 19:46 UTC

1 68362U 26061C   26257.82429790  .00004030  00000-0  19451-3 0  9993
2 68362  82.2924 282.8112 0000782 337.7495  22.3704 15.18421473 27040

Volg RASSVET-3 3 in realtime met AllMySat

Download on the App Store